ATLAS CENTAUR R/B (6155 NORAD) Tracking and Keplerian Element Data

This shows tracking and keplerian element data for the satellite.

Feedback or suggestion? Click here.




ElementValue
Catalog6155
NameATLAS CENTAUR R/B
Epoch Orbit72496
Epoch Day12.94895204
Epoch Year2024
RAAN223.3897
Inclination35.0017
Eccentricity0.0036619
Argument of Perigee247.8336
Mean Anonmoly111.8475
Mean Motion14.7375688
Decay Rate1.672E-05
L11 06155U 72065B 24012.94895204 .00001672 00000+0 25246-3 0 9994
L22 06155 35.0017 223.3897 0036619 247.8336 111.8475 14.73756880724961



Live tracking and technical data element details for ATLAS CENTAUR R/B (NORAD 6155). ATLAS CENTAUR R/B can be tracked NOW for your location showing map with azimuth and elevation plus other details from your city location.







IsCatalogInMostPopularTable: catalog: 6155, numindb: 399
Update: records affected: 1



GetName: 6155 ATLAS CENTAUR R/B

Hit Count: updated at: Sun, 14 Apr 2024 23:34:30 GMT